Location: Caltech
(34.1382°N, 118.1253°W)
Time: 14:53:45
(UTC-07:00)

OPAL - Visible Passes

Search period start: 29 June 2016 00:00
Search period end: 09 July 2016 00:00
Orbit: 744 x 795 km, 100.2° (Epoch: 28 June)

Date Brightness Start Highest point End Pass type
(mag) Time Alt. Az. Time Alt. Az. Time Alt. Az.
29 Jun 9.1 01:32:42 10° NE 01:35:51 26° ENE 01:35:51 26° ENE visible
29 Jun 8.7 03:11:33 10° N 03:15:49 28° WNW 03:16:08 27° WNW visible
30 Jun 10.1 00:59:35 10° ENE 00:59:54 11° ENE 00:59:54 11° ENE visible
30 Jun 7.7 02:35:34 10° N 02:40:11 61° NW 02:40:11 61° NW visible
01 Jul 8.3 02:00:13 10° NNE 02:04:14 46° ENE 02:04:14 46° ENE visible
01 Jul 9.4 03:40:39 10° NNW 03:43:34 16° WNW 03:44:31 15° WNW visible
02 Jul 9.4 01:25:40 10° NE 01:28:17 20° ENE 01:28:17 20° ENE visible
02 Jul 8.4 03:03:57 10° N 03:08:29 34° WNW 03:08:34 34° WNW visible
03 Jul 7.7 02:28:08 10° NNE 02:32:36 68° N 02:32:36 68° N visible
04 Jul 8.6 01:52:58 10° NNE 01:56:39 37° ENE 01:56:39 37° ENE visible
04 Jul 9.1 03:32:46 10° NNW 03:36:16 19° WNW 03:36:56 19° WNW visible
05 Jul 9.7 01:18:45 10° NE 01:20:41 16° ENE 01:20:41 16° ENE visible
05 Jul 8.1 02:56:24 10° N 03:00:59 42° WNW 03:00:59 42° WNW visible
06 Jul 7.8 02:20:45 10° NNE 02:25:01 63° NNE 02:25:01 63° NNE visible
06 Jul 9.7 04:03:15 10° NW 04:03:57 10° WNW 04:04:38 10° WNW visible
07 Jul 9.0 01:45:47 10° NE 01:49:03 29° ENE 01:49:03 29° ENE visible
07 Jul 8.9 03:25:01 10° NNW 03:28:58 24° WNW 03:29:20 23° WNW visible
08 Jul 9.9 01:12:05 10° ENE 01:13:05 12° ENE 01:13:05 12° ENE visible
08 Jul 7.9 02:48:53 10° N 02:53:22 52° NW 02:53:22 52° NW visible
